| time (UTC) | temp F | wind direction | speed MPH | gust MPH | rain 1hr in | rain 24hr in | rain mn in | humidity % | barometer mb |
| 20260831174652 | 81 | 0 | 4.0 | 9.0 | 0.00 | 0.01 | 0.01 | 66 | 1020.4 |
| 20260831174153 | 81 | 0 | 6.0 | 11.0 | 0.00 | 0.01 | 0.01 | 66 | 1020.5 |
| 20260831173654 | 81 | 0 | 6.0 | 11.0 | 0.00 | 0.01 | 0.01 | 65 | 1020.5 |
| 20260831173152 | 81 | 0 | 5.0 | 9.0 | 0.00 | 0.01 | 0.01 | 65 | 1020.5 |
| 20260831172654 | 81 | 0 | 5.0 | 9.0 | 0.00 | 0.01 | 0.01 | 65 | 1020.5 |
| 20260831172146 | 82 | 0 | 5.0 | 10.0 | 0.00 | 0.01 | 0.01 | 64 | 1020.7 |
| 20260831171645 | 81 | 191 | 6.0 | 11.0 | 0.00 | 0.01 | 0.01 | 65 | 1020.5 |
| 20260831171145 | 81 | 0 | 5.0 | 11.0 | 0.00 | 0.01 | 0.01 | 65 | 1020.6 |
| 20260831170646 | 81 | 0 | 5.0 | 10.0 | 0.00 | 0.01 | 0.01 | 65 | 1020.8 |
| 20260831170146 | 81 | 0 | 6.0 | 10.0 | 0.00 | 0.01 | 0.01 | 64 | 1020.8 |
| 20260831165646 | 81 | 0 | 7.0 | 12.0 | 0.00 | 0.01 | 0.01 | 65 | 1020.9 |
| 20260831165144 | 80 | 0 | 6.0 | 12.0 | 0.00 | 0.01 | 0.01 | 64 | 1020.9 |
| 20260831164642 | 80 | 0 | 4.0 | 11.0 | 0.00 | 0.01 | 0.01 | 65 | 1020.9 |
| 20260831164141 | 80 | 0 | 4.0 | 11.0 | 0.00 | 0.01 | 0.01 | 65 | 1020.9 |
| 20260831163640 | 79 | 213 | 4.0 | 8.0 | 0.00 | 0.01 | 0.01 | 65 | 1020.9 |
| 20260831163139 | 79 | 0 | 3.0 | 8.0 | 0.00 | 0.01 | 0.01 | 65 | 1020.9 |
| 20260831162640 | 79 | 0 | 3.0 | 6.0 | 0.00 | 0.01 | 0.01 | 66 | 1021.0 |
| 20260831162138 | 79 | 0 | 3.0 | 8.0 | 0.00 | 0.01 | 0.01 | 65 | 1021.1 |
| 20260831161637 | 78 | 0 | 5.0 | 12.0 | 0.00 | 0.01 | 0.01 | 65 | 1021.1 |
| 20260831161136 | 79 | 0 | 6.0 | 13.0 | 0.00 | 0.01 | 0.01 | 64 | 1021.2 |
| 20260831160913 | 79 | 0 | 6.0 | 11.0 | 0.00 | 0.01 | 0.01 | 64 | 1021.1 |
| 20260831160637 | 79 | 0 | 5.0 | 13.0 | 0.00 | 0.01 | 0.01 | 64 | 1021.1 |
| 20260831155636 | 79 | 0 | 6.0 | 13.0 | 0.00 | 0.01 | 0.01 | 63 | 1021.0 |
| 20260831155140 | 79 | 0 | 4.0 | 13.0 | 0.00 | 0.01 | 0.01 | 63 | 1021.1 |
| 20260831154634 | 78 | 0 | 5.0 | 13.0 | 0.00 | 0.01 | 0.01 | 64 | 1021.1 |
| 20260831154132 | 78 | 0 | 6.0 | 13.0 | 0.00 | 0.01 | 0.01 | 63 | 1021.1 |
| 20260831153633 | 78 | 0 | 5.0 | 12.0 | 0.00 | 0.01 | 0.01 | 63 | 1021.0 |
| 20260831153133 | 77 | 0 | 5.0 | 11.0 | 0.00 | 0.01 | 0.01 | 64 | 1020.9 |
| 20260831152634 | 76 | 0 | 4.0 | 9.0 | 0.00 | 0.01 | 0.01 | 63 | 1021.0 |
| 20260831152404 | 76 | 0 | 4.0 | 9.0 | 0.00 | 0.01 | 0.01 | 64 | 1020.9 |
| 20260831151632 | 76 | 0 | 4.0 | 9.0 | 0.00 | 0.01 | 0.01 | 64 | 1021.0 |
| 20260831151131 | 76 | 0 | 4.0 | 9.0 | 0.00 | 0.01 | 0.01 | 64 | 1020.9 |
| 20260831150903 | 75 | 0 | 3.0 | 9.0 | 0.00 | 0.01 | 0.01 | 65 | 1021.0 |
| 20260831150126 | 75 | 0 | 3.0 | 6.0 | 0.00 | 0.01 | 0.01 | 65 | 1021.2 |
| 20260831145621 | 75 | 0 | 3.0 | 6.0 | 0.00 | 0.01 | 0.01 | 66 | 1021.2 |
| 20260831145120 | 74 | 0 | 2.0 | 6.0 | 0.00 | 0.01 | 0.01 | 68 | 1021.2 |
| 20260831144852 | 74 | 0 | 1.0 | 4.0 | 0.00 | 0.01 | 0.01 | 68 | 1021.1 |
| 20260831144122 | 74 | 187 | 1.0 | 3.0 | 0.00 | 0.01 | 0.01 | 69 | 1021.1 |
| 20260831143621 | 73 | 187 | 2.0 | 4.0 | 0.01 | 0.01 | 0.01 | 69 | 1021.1 |
| 20260831143121 | 73 | 0 | 2.0 | 5.0 | 0.01 | 0.01 | 0.01 | 70 | 1021.0 |
| 20260831142617 | 73 | 0 | 1.0 | 5.0 | 0.01 | 0.01 | 0.01 | 70 | 1021.0 |
| 20260831142117 | 73 | 202 | 1.0 | 3.0 | 0.01 | 0.01 | 0.01 | 71 | 1021.1 |
| 20260831141620 | 72 | 202 | 2.0 | 3.0 | 0.01 | 0.01 | 0.01 | 71 | 1021.1 |
| 20260831141349 | 72 | 0 | 2.0 | 4.0 | 0.01 | 0.01 | 0.01 | 70 | 1021.0 |
| 20260831140617 | 72 | 0 | 3.0 | 5.0 | 0.01 | 0.01 | 0.01 | 70 | 1020.9 |
| 20260831140118 | 72 | 0 | 3.0 | 5.0 | 0.01 | 0.01 | 0.01 | 71 | 1021.0 |
| 20260831135849 | 72 | 0 | 2.0 | 4.0 | 0.01 | 0.01 | 0.01 | 71 | 1021.1 |
| 20260831135116 | 72 | 0 | 2.0 | 3.0 | 0.01 | 0.01 | 0.01 | 71 | 1021.2 |
| 20260831134616 | 72 | 0 | 1.0 | 3.0 | 0.01 | 0.01 | 0.01 | 71 | 1021.2 |
| 20260831134118 | 71 | 178 | 0.0 | 0.0 | 0.01 | 0.01 | 0.01 | 71 | 1021.2 |
| 20260831133618 | 71 | 189 | 0.0 | 0.0 | 0.00 | 0.00 | 0.00 | 71 | 1021.1 |
| 20260831133348 | 71 | 190 | 0.0 | 0.0 | 0.00 | 0.00 | 0.00 | 71 | 1021.4 |
| 20260831132615 | 71 | 189 | 0.0 | 1.0 | 0.00 | 0.00 | 0.00 | 71 | 1021.2 |
| 20260831132114 | 71 | 191 | 1.0 | 3.0 | 0.00 | 0.00 | 0.00 | 71 | 1021.1 |
| 20260831131614 | 71 | 192 | 2.0 | 4.0 | 0.00 | 0.00 | 0.00 | 71 | 1021.0 |
| 20260831131115 | 71 | 0 | 2.0 | 4.0 | 0.00 | 0.00 | 0.00 | 71 | 1021.0 |
| 20260831130615 | 71 | 190 | 2.0 | 4.0 | 0.00 | 0.00 | 0.00 | 72 | 1020.9 |
| 20260831130114 | 71 | 179 | 2.0 | 4.0 | 0.00 | 0.00 | 0.00 | 72 | 1020.9 |
| 20260831125610 | 71 | 0 | 2.0 | 4.0 | 0.00 | 0.00 | 0.00 | 72 | 1020.8 |
| 20260831125111 | 71 | 0 | 1.0 | 4.0 | 0.00 | 0.00 | 0.00 | 72 | 1020.8 |
| 20260831124612 | 71 | 128 | 1.0 | 3.0 | 0.00 | 0.00 | 0.00 | 72 | 1020.9 |
| 20260831124343 | 71 | 0 | 2.0 | 3.0 | 0.00 | 0.00 | 0.00 | 72 | 1020.9 |
| 20260831123610 | 71 | 0 | 1.0 | 3.0 | 0.00 | 0.00 | 0.00 | 72 | 1020.7 |
| 20260831123111 | 70 | 0 | 0.0 | 3.0 | 0.00 | 0.00 | 0.00 | 72 | 1020.8 |
| 20260831122611 | 70 | 115 | 0.0 | 0.0 | 0.00 | 0.00 | 0.00 | 72 | 1020.8 |
| 20260831122104 | 70 | 114 | 0.0 | 0.0 | 0.00 | 0.00 | 0.00 | 72 | 1020.8 |
| 20260831121604 | 70 | 113 | 0.0 | 0.0 | 0.00 | 0.00 | 0.00 | 72 | 1020.9 |
| 20260831121105 | 70 | 114 | 0.0 | 0.0 | 0.00 | 0.00 | 0.00 | 72 | 1020.8 |
| 20260831120603 | 70 | 114 | 0.0 | 0.0 | 0.00 | 0.00 | 0.00 | 72 | 1020.7 |
| 20260831120103 | 70 | 121 | 0.0 | 0.0 | 0.00 | 0.00 | 0.00 | 72 | 1020.6 |
| 20260831115603 | 70 | 116 | 0.0 | 1.0 | 0.00 | 0.00 | 0.00 | 72 | 1020.6 |
| 20260831115100 | 70 | 115 | 1.0 | 3.0 | 0.00 | 0.00 | 0.00 | 72 | 1020.6 |
| 20260831114601 | 70 | 0 | 1.0 | 3.0 | 0.00 | 0.00 | 0.00 | 72 | 1020.5 |
| 20260831114327 | 70 | 114 | 1.0 | 3.0 | 0.00 | 0.00 | 0.00 | 72 | 1020.6 |
| 20260831113557 | 70 | 113 | 2.0 | 3.0 | 0.00 | 0.00 | 0.00 | 72 | 1020.5 |
| 20260831113328 | 70 | 79 | 1.0 | 3.0 | 0.00 | 0.00 | 0.00 | 72 | 1020.5 |
| 20260831112555 | 70 | 0 | 0.0 | 0.0 | 0.00 | 0.00 | 0.00 | 72 | 1020.5 |
| 20260831112053 | 70 | 78 | 0.0 | 0.0 | 0.00 | 0.00 | 0.00 | 72 | 1020.4 |
| 20260831111550 | 70 | 78 | 0.0 | 0.0 | 0.00 | 0.00 | 0.00 | 72 | 1020.3 |
| 20260831111050 | 70 | 80 | 0.0 | 0.0 | 0.00 | 0.00 | 0.00 | 72 | 1020.4 |
| 20260831110549 | 70 | 80 | 0.0 | 0.0 | 0.00 | 0.00 | 0.00 | 72 | 1020.3 |
| 20260831110319 | 70 | 80 | 0.0 | 0.0 | 0.00 | 0.00 | 0.00 | 72 | 1020.2 |
| 20260831105820 | 70 | 78 | 0.0 | 0.0 | 0.00 | 0.00 | 0.00 | 72 | 1020.2 |
| 20260831105040 | 70 | 80 | 0.0 | 0.0 | 0.00 | 0.00 | 0.00 | 71 | 1020.1 |
| 20260831104538 | 70 | 80 | 0.0 | 0.0 | 0.00 | 0.00 | 0.00 | 71 | 1020.0 |
| 20260831104037 | 70 | 78 | 0.0 | 0.0 | 0.00 | 0.00 | 0.00 | 71 | 1020.0 |
| 20260831103535 | 70 | 78 | 0.0 | 0.0 | 0.00 | 0.00 | 0.00 | 71 | 1020.0 |
| 20260831103038 | 70 | 78 | 0.0 | 0.0 | 0.00 | 0.00 | 0.00 | 71 | 1020.0 |
| 20260831102532 | 70 | 78 | 0.0 | 0.0 | 0.00 | 0.00 | 0.00 | 71 | 1020.0 |
| 20260831102030 | 70 | 78 | 0.0 | 0.0 | 0.00 | 0.00 | 0.00 | 71 | 1020.0 |
| 20260831101532 | 70 | 78 | 0.0 | 0.0 | 0.00 | 0.00 | 0.00 | 71 | 1019.9 |
| 20260831101031 | 70 | 78 | 0.0 | 0.0 | 0.00 | 0.00 | 0.00 | 71 | 1019.9 |
| 20260831100529 | 70 | 78 | 0.0 | 0.0 | 0.00 | 0.00 | 0.00 | 71 | 1020.0 |
| 20260831100029 | 70 | 77 | 0.0 | 0.0 | 0.00 | 0.00 | 0.00 | 71 | 1020.0 |
| 20260831095524 | 70 | 77 | 0.0 | 0.0 | 0.00 | 0.00 | 0.00 | 71 | 1020.1 |
| 20260831095023 | 70 | 79 | 0.0 | 0.0 | 0.00 | 0.00 | 0.00 | 71 | 1020.0 |
| 20260831094531 | 70 | 79 | 0.0 | 0.0 | 0.00 | 0.00 | 0.00 | 71 | 1019.8 |
| 20260831094526 | 70 | 78 | 0.0 | 0.0 | 0.00 | 0.00 | 0.00 | 71 | 1020.0 |
| 20260831093523 | 70 | 78 | 0.0 | 0.0 | 0.00 | 0.00 | 0.00 | 71 | 1019.8 |
| 20260831093023 | 70 | 77 | 0.0 | 0.0 | 0.00 | 0.00 | 0.00 | 71 | 1019.8 |
| 20260831092517 | 70 | 78 | 0.0 | 0.0 | 0.00 | 0.00 | 0.00 | 71 | 1019.9 |
| 20260831092244 | 70 | 77 | 0.0 | 0.0 | 0.00 | 0.00 | 0.00 | 71 | 1019.9 |
| 20260831091744 | 70 | 77 | 0.0 | 0.0 | 0.00 | 0.00 | 0.00 | 70 | 1019.9 |
| 20260831091010 | 70 | 78 | 0.0 | 0.0 | 0.00 | 0.00 | 0.00 | 70 | 1020.2 |
| 20260831090741 | 70 | 78 | 0.0 | 0.0 | 0.00 | 0.00 | 0.00 | 70 | 1020.0 |
| 20260831090004 | 70 | 79 | 0.0 | 0.0 | 0.00 | 0.00 | 0.00 | 70 | 1020.0 |
| 20260831085505 | 70 | 78 | 0.0 | 0.0 | 0.00 | 0.00 | 0.00 | 70 | 1019.8 |
| 20260831085004 | 70 | 78 | 0.0 | 0.0 | 0.00 | 0.00 | 0.00 | 70 | 1019.8 |
| 20260831084505 | 70 | 79 | 0.0 | 0.0 | 0.00 | 0.00 | 0.00 | 70 | 1019.8 |
| 20260831084005 | 71 | 86 | 0.0 | 0.0 | 0.00 | 0.00 | 0.00 | 70 | 1019.8 |
| 20260831083507 | 71 | 76 | 0.0 | 0.0 | 0.00 | 0.00 | 0.00 | 70 | 1019.8 |
| 20260831083001 | 71 | 76 | 0.0 | 0.0 | 0.00 | 0.00 | 0.00 | 70 | 1019.7 |
| 20260831082500 | 71 | 76 | 0.0 | 0.0 | 0.00 | 0.00 | 0.00 | 70 | 1019.7 |
| 20260831082001 | 71 | 76 | 0.0 | 0.0 | 0.00 | 0.00 | 0.00 | 70 | 1019.5 |
| 20260831081501 | 71 | 76 | 0.0 | 0.0 | 0.00 | 0.00 | 0.00 | 70 | 1019.5 |
| 20260831081230 | 71 | 76 | 0.0 | 0.0 | 0.00 | 0.00 | 0.00 | 70 | 1019.5 |
| 20260831080459 | 71 | 76 | 0.0 | 0.0 | 0.00 | 0.00 | 0.00 | 70 | 1019.6 |
| 20260831075957 | 71 | 76 | 0.0 | 0.0 | 0.00 | 0.00 | 0.00 | 70 | 1019.6 |
| 20260831075454 | 71 | 76 | 0.0 | 0.0 | 0.00 | 0.00 | 0.00 | 70 | 1019.7 |
| 20260831075226 | 71 | 76 | 0.0 | 0.0 | 0.00 | 0.00 | 0.00 | 70 | 1019.6 |
| 20260831074455 | 71 | 76 | 0.0 | 0.0 | 0.00 | 0.00 | 0.00 | 70 | 1019.7 |
| 20260831073953 | 71 | 76 | 0.0 | 0.0 | 0.00 | 0.00 | 0.00 | 70 | 1019.7 |
| 20260831073453 | 71 | 76 | 0.0 | 0.0 | 0.00 | 0.00 | 0.00 | 70 | 1019.9 |
| 20260831072947 | 71 | 76 | 0.0 | 0.0 | 0.00 | 0.00 | 0.00 | 70 | 1019.8 |
| 20260831072445 | 71 | 76 | 0.0 | 0.0 | 0.00 | 0.00 | 0.00 | 69 | 1019.8 |
| 20260831071943 | 71 | 77 | 0.0 | 0.0 | 0.00 | 0.00 | 0.00 | 69 | 1019.8 |
| 20260831071441 | 71 | 80 | 0.0 | 0.0 | 0.00 | 0.00 | 0.00 | 69 | 1020.0 |
| 20260831070941 | 72 | 78 | 0.0 | 0.0 | 0.00 | 0.00 | 0.00 | 69 | 1020.0 |
| 20260831070436 | 72 | 78 | 0.0 | 0.0 | 0.00 | 0.00 | 0.00 | 69 | 1020.0 |
| 20260831065935 | 72 | 76 | 0.0 | 0.0 | 0.00 | 0.00 | 0.00 | 70 | 1020.1 |
| 20260831065706 | 72 | 76 | 0.0 | 0.0 | 0.00 | 0.00 | 0.00 | 69 | 1020.1 |
| 20260831064937 | 72 | 77 | 0.0 | 0.0 | 0.00 | 0.00 | 0.00 | 69 | 1020.2 |
| 20260831064435 | 72 | 78 | 0.0 | 0.0 | 0.00 | 0.00 | 0.00 | 69 | 1020.3 |
| 20260831063933 | 72 | 76 | 0.0 | 0.0 | 0.00 | 0.00 | 0.00 | 69 | 1020.3 |
| 20260831063429 | 72 | 86 | 0.0 | 0.0 | 0.00 | 0.00 | 0.00 | 70 | 1020.3 |
| 20260831062927 | 72 | 86 | 0.0 | 0.0 | 0.00 | 0.00 | 0.00 | 70 | 1020.2 |
| 20260831062701 | 72 | 76 | 0.0 | 0.0 | 0.00 | 0.00 | 0.00 | 70 | 1020.2 |
| 20260831061927 | 73 | 77 | 0.0 | 0.0 | 0.00 | 0.00 | 0.00 | 70 | 1020.2 |
| 20260831061425 | 73 | 76 | 0.0 | 0.0 | 0.00 | 0.00 | 0.00 | 70 | 1020.2 |
| 20260831060925 | 73 | 76 | 0.0 | 0.0 | 0.00 | 0.00 | 0.00 | 70 | 1020.3 |
| 20260831060419 | 73 | 0 | 0.0 | 0.0 | 0.00 | 0.00 | 0.00 | 70 | 1020.4 |
| 20260831055921 | 73 | 75 | 0.0 | 0.0 | 0.00 | 0.00 | 0.00 | 70 | 1020.2 |
| 20260831055648 | 73 | 75 | 0.0 | 0.0 | 0.00 | 0.00 | 0.00 | 70 | 1020.2 |
| 20260831054917 | 73 | 76 | 0.0 | 3.0 | 0.00 | 0.00 | 0.00 | 70 | 1020.2 |
| 20260831054417 | 73 | 76 | 0.0 | 3.0 | 0.00 | 0.00 | 0.00 | 70 | 1020.3 |
| 20260831053914 | 73 | 15 | 0.0 | 0.0 | 0.00 | 0.00 | 0.00 | 70 | 1020.4 |
| 20260831053412 | 73 | 14 | 0.0 | 0.0 | 0.00 | 0.00 | 0.00 | 70 | 1020.6 |
| 20260831052910 | 73 | 13 | 0.0 | 0.0 | 0.00 | 0.00 | 0.00 | 70 | 1020.7 |
| 20260831052410 | 74 | 16 | 0.0 | 0.0 | 0.00 | 0.00 | 0.00 | 70 | 1020.6 |
| 20260831051908 | 74 | 15 | 0.0 | 0.0 | 0.00 | 0.00 | 0.00 | 70 | 1020.6 |
| 20260831051407 | 74 | 16 | 0.0 | 0.0 | 0.00 | 0.00 | 0.00 | 70 | 1020.8 |
| 20260831050908 | 74 | 14 | 0.0 | 3.0 | 0.00 | 0.00 | 0.00 | 70 | 1020.8 |
| 20260831050403 | 74 | 15 | 1.0 | 5.0 | 0.00 | 0.00 | 0.00 | 70 | 1020.8 |
| 20260831045903 | 74 | 14 | 2.0 | 5.0 | 0.00 | 0.00 | 0.00 | 70 | 1020.8 |
| 20260831045634 | 75 | 0 | 1.0 | 5.0 | 0.00 | 0.00 | 0.00 | 71 | 1020.8 |
| 20260831045135 | 75 | 0 | 1.0 | 3.0 | 0.00 | 0.00 | 0.00 | 71 | 1020.8 |
| 20260831044634 | 75 | 0 | 2.0 | 9.0 | 0.00 | 0.00 | 0.00 | 71 | 1020.6 |
| 20260831043905 | 75 | 0 | 3.0 | 9.0 | 0.00 | 0.00 | 0.00 | 71 | 1020.7 |
| 20260831043359 | 75 | 0 | 3.0 | 8.0 | 0.00 | 0.00 | 0.00 | 70 | 1020.6 |
| 20260831043131 | 75 | 0 | 2.0 | 8.0 | 0.00 | 0.00 | 0.00 | 70 | 1020.5 |
| 20260831042400 | 75 | 0 | 0.0 | 4.0 | 0.00 | 0.00 | 0.00 | 70 | 1020.5 |
| 20260831041859 | 75 | 0 | 0.0 | 2.0 | 0.00 | 0.00 | 0.00 | 70 | 1020.6 |
| 20260831041400 | 75 | 0 | 1.0 | 2.0 | 0.00 | 0.00 | 0.00 | 70 | 1020.6 |
| 20260831040906 | 75 | 0 | 1.0 | 3.0 | 0.00 | 0.00 | 0.00 | 71 | 1020.7 |
| 20260831040901 | 75 | 0 | 1.0 | 3.0 | 0.00 | 0.00 | 0.00 | 70 | 1020.6 |
| 20260831040356 | 75 | 0 | 1.0 | 3.0 | 0.00 | 0.00 | 0.00 | 70 | 1020.7 |
| 20260831035855 | 75 | 0 | 1.0 | 3.0 | 0.00 | 0.00 | 0.00 | 70 | 1020.7 |
| 20260831034847 | 75 | 0 | 2.0 | 5.0 | 0.00 | 0.00 | 0.00 | 71 | 1020.6 |
| 20260831034347 | 76 | 0 | 2.0 | 5.0 | 0.00 | 0.00 | 0.00 | 71 | 1020.7 |
| 20260831033847 | 76 | 0 | 2.0 | 4.0 | 0.00 | 0.00 | 0.00 | 71 | 1020.8 |
| 20260831033347 | 76 | 0 | 1.0 | 4.0 | 0.00 | 0.00 | 0.00 | 70 | 1020.8 |
| 20260831032846 | 76 | 0 | 1.0 | 3.0 | 0.00 | 0.00 | 0.00 | 70 | 1021.0 |
| 20260831032347 | 76 | 0 | 1.0 | 4.0 | 0.00 | 0.00 | 0.00 | 70 | 1021.0 |
| 20260831031843 | 76 | 0 | 1.0 | 4.0 | 0.00 | 0.00 | 0.00 | 71 | 1020.9 |
| 20260831031342 | 76 | 0 | 0.0 | 0.0 | 0.00 | 0.00 | 0.00 | 71 | 1021.0 |
| 20260831030840 | 76 | 163 | 0.0 | 0.0 | 0.00 | 0.00 | 0.00 | 70 | 1021.2 |
| 20260831030340 | 76 | 163 | 0.0 | 0.0 | 0.00 | 0.00 | 0.00 | 70 | 1021.2 |
| 20260831025841 | 77 | 163 | 0.0 | 0.0 | 0.00 | 0.00 | 0.00 | 69 | 1021.2 |
| 20260831025338 | 77 | 163 | 0.0 | 0.0 | 0.00 | 0.00 | 0.00 | 69 | 1021.2 |
| 20260831024838 | 77 | 163 | 0.0 | 0.0 | 0.00 | 0.00 | 0.00 | 69 | 1021.1 |
| 20260831024334 | 77 | 163 | 0.0 | 0.0 | 0.00 | 0.00 | 0.00 | 69 | 1021.1 |
| 20260831023834 | 77 | 163 | 0.0 | 0.0 | 0.00 | 0.00 | 0.00 | 70 | 1021.1 |
| 20260831023606 | 77 | 163 | 0.0 | 0.0 | 0.00 | 0.00 | 0.00 | 70 | 1021.0 |
| 20260831023106 | 77 | 162 | 0.0 | 0.0 | 0.00 | 0.00 | 0.00 | 70 | 1021.0 |
| 20260831022608 | 77 | 0 | 0.0 | 0.0 | 0.00 | 0.00 | 0.00 | 69 | 1021.1 |
| 20260831021838 | 77 | 0 | 0.0 | 0.0 | 0.00 | 0.00 | 0.00 | 70 | 1021.1 |
| 20260831021333 | 77 | 163 | 0.0 | 0.0 | 0.00 | 0.00 | 0.00 | 69 | 1020.9 |
| 20260831021101 | 77 | 0 | 0.0 | 0.0 | 0.00 | 0.00 | 0.00 | 69 | 1020.8 |
| 20260831020329 | 78 | 0 | 0.0 | 0.0 | 0.00 | 0.00 | 0.00 | 69 | 1020.7 |
| 20260831015830 | 78 | 0 | 0.0 | 2.0 | 0.00 | 0.00 | 0.00 | 69 | 1020.7 |
| 20260831015601 | 78 | 163 | 0.0 | 3.0 | 0.00 | 0.00 | 0.00 | 69 | 1020.7 |
| 20260831014830 | 78 | 0 | 0.0 | 3.0 | 0.00 | 0.00 | 0.00 | 69 | 1020.9 |
| 20260831014326 | 78 | 0 | 0.0 | 0.0 | 0.00 | 0.00 | 0.00 | 68 | 1020.8 |
| 20260831013826 | 78 | 0 | 0.0 | 0.0 | 0.00 | 0.00 | 0.00 | 68 | 1020.8 |
| 20260831013325 | 78 | 0 | 0.0 | 0.0 | 0.00 | 0.00 | 0.00 | 68 | 1020.8 |
| 20260831012826 | 78 | 0 | 0.0 | 1.0 | 0.00 | 0.00 | 0.00 | 68 | 1020.9 |
| 20260831012325 | 78 | 0 | 0.0 | 3.0 | 0.00 | 0.00 | 0.00 | 68 | 1020.8 |
| 20260831011827 | 78 | 0 | 1.0 | 3.0 | 0.00 | 0.00 | 0.00 | 68 | 1020.8 |
| 20260831011321 | 78 | 0 | 1.0 | 3.0 | 0.00 | 0.00 | 0.00 | 68 | 1020.9 |
| 20260831010821 | 78 | 0 | 0.0 | 2.0 | 0.00 | 0.00 | 0.00 | 67 | 1020.7 |
| 20260831010321 | 78 | 0 | 1.0 | 4.0 | 0.00 | 0.00 | 0.00 | 67 | 1020.6 |
| 20260831005821 | 78 | 0 | 2.0 | 4.0 | 0.00 | 0.00 | 0.00 | 67 | 1020.4 |
| 20260831005321 | 79 | 0 | 1.0 | 4.0 | 0.00 | 0.00 | 0.00 | 67 | 1020.3 |
| 20260831004819 | 79 | 0 | 0.0 | 3.0 | 0.00 | 0.00 | 0.00 | 67 | 1020.3 |
| 20260831004320 | 79 | 0 | 0.0 | 3.0 | 0.00 | 0.00 | 0.00 | 67 | 1020.2 |
| 20260831003819 | 79 | 0 | 0.0 | 3.0 | 0.00 | 0.00 | 0.00 | 67 | 1020.1 |
| 20260831003320 | 79 | 0 | 0.0 | 1.0 | 0.00 | 0.00 | 0.00 | 67 | 1020.1 |
| 20260831002813 | 79 | 0 | 1.0 | 2.0 | 0.00 | 0.00 | 0.00 | 66 | 1019.8 |
| 20260831002315 | 79 | 192 | 2.0 | 3.0 | 0.00 | 0.00 | 0.00 | 66 | 1019.8 |
| 20260831001813 | 79 | 0 | 2.0 | 4.0 | 0.00 | 0.00 | 0.00 | 66 | 1019.7 |
| 20260831001311 | 79 | 0 | 2.0 | 4.0 | 0.00 | 0.00 | 0.00 | 65 | 1019.7 |
| 20260831000812 | 80 | 0 | 2.0 | 4.0 | 0.00 | 0.00 | 0.00 | 66 | 1019.5 |
| 20260831000545 | 80 | 0 | 3.0 | 5.0 | 0.00 | 0.00 | 0.00 | 65 | 1019.6 |
| 20260830235809 | 81 | 0 | 2.0 | 5.0 | 0.00 | 0.00 | 0.00 | 65 | 1019.5 |
| 20260830235306 | 82 | 0 | 0.0 | 4.0 | 0.00 | 0.00 | 0.00 | 61 | 1019.4 |
| 20260830234806 | 82 | 0 | 0.0 | 2.0 | 0.00 | 0.00 | 0.00 | 60 | 1019.5 |
| 20260830234537 | 83 | 0 | 0.0 | 0.0 | 0.00 | 0.00 | 0.00 | 60 | 1019.3 |
| 20260830234035 | 83 | 0 | 0.0 | 0.0 | 0.00 | 0.00 | 0.00 | 59 | 1019.2 |
| 20260830233307 | 83 | 0 | 0.0 | 2.0 | 0.00 | 0.00 | 0.00 | 57 | 1019.1 |
| 20260830232757 | 84 | 0 | 0.0 | 2.0 | 0.00 | 0.00 | 0.00 | 56 | 1019.0 |
| 20260830232258 | 84 | 0 | 0.0 | 0.0 | 0.00 | 0.00 | 0.00 | 57 | 1019.0 |
| 20260830231758 | 84 | 0 | 0.0 | 2.0 | 0.00 | 0.00 | 0.00 | 56 | 1018.9 |
| 20260830231258 | 85 | 311 | 1.0 | 3.0 | 0.00 | 0.00 | 0.00 | 55 | 1018.9 |
| 20260830230756 | 85 | 311 | 1.0 | 3.0 | 0.00 | 0.00 | 0.00 | 54 | 1018.8 |
| 20260830230256 | 85 | 0 | 1.0 | 3.0 | 0.00 | 0.00 | 0.00 | 54 | 1018.9 |
| 20260830225751 | 85 | 0 | 0.0 | 3.0 | 0.00 | 0.00 | 0.00 | 54 | 1019.0 |
| 20260830225251 | 85 | 294 | 0.0 | 3.0 | 0.00 | 0.00 | 0.00 | 53 | 1019.0 |
| 20260830224751 | 85 | 0 | 0.0 | 0.0 | 0.00 | 0.00 | 0.00 | 55 | 1019.1 |
| 20260830224251 | 86 | 286 | 1.0 | 3.0 | 0.00 | 0.00 | 0.00 | 55 | 1019.1 |
| 20260830223748 | 86 | 285 | 1.0 | 3.0 | 0.00 | 0.00 | 0.00 | 54 | 1019.2 |
| 20260830223247 | 86 | 265 | 0.0 | 1.0 | 0.00 | 0.00 | 0.00 | 55 | 1019.2 |
| 20260830222742 | 86 | 265 | 0.0 | 2.0 | 0.00 | 0.00 | 0.00 | 54 | 1019.2 |
| 20260830222512 | 86 | 265 | 1.0 | 4.0 | 0.00 | 0.00 | 0.00 | 52 | 1019.2 |
| 20260830221738 | 86 | 265 | 1.0 | 4.0 | 0.00 | 0.00 | 0.00 | 52 | 1019.1 |
| 20260830221236 | 86 | 0 | 1.0 | 3.0 | 0.00 | 0.00 | 0.00 | 51 | 1019.2 |
| 20260830220736 | 86 | 303 | 1.0 | 4.0 | 0.00 | 0.00 | 0.00 | 53 | 1019.2 |
| 20260830220233 | 86 | 0 | 1.0 | 5.0 | 0.00 | 0.00 | 0.00 | 53 | 1019.2 |
| 20260830215732 | 87 | 0 | 1.0 | 5.0 | 0.00 | 0.00 | 0.00 | 51 | 1019.2 |
| 20260830215229 | 87 | 0 | 2.0 | 8.0 | 0.00 | 0.00 | 0.00 | 50 | 1019.3 |
| 20260830214730 | 87 | 253 | 3.0 | 8.0 | 0.00 | 0.00 | 0.00 | 50 | 1019.4 |
| 20260830214502 | 87 | 298 | 3.0 | 8.0 | 0.00 | 0.00 | 0.00 | 49 | 1019.2 |
| 20260830213732 | 88 | 318 | 3.0 | 8.0 | 0.00 | 0.00 | 0.00 | 49 | 1019.3 |
| 20260830213456 | 88 | 0 | 2.0 | 5.0 | 0.00 | 0.00 | 0.00 | 50 | 1019.3 |
| 20260830212723 | 88 | 27 | 1.0 | 6.0 | 0.00 | 0.00 | 0.00 | 51 | 1019.2 |
| 20260830212224 | 88 | 65 | 3.0 | 6.0 | 0.00 | 0.00 | 0.00 | 48 | 1019.3 |
| 20260830211724 | 88 | 0 | 3.0 | 6.0 | 0.00 | 0.00 | 0.00 | 49 | 1019.3 |
| 20260830211224 | 88 | 0 | 4.0 | 10.0 | 0.00 | 0.00 | 0.00 | 50 | 1019.3 |
| 20260830210724 | 88 | 0 | 4.0 | 10.0 | 0.00 | 0.00 | 0.00 | 49 | 1019.3 |
| 20260830210217 | 87 | 0 | 4.0 | 11.0 | 0.00 | 0.00 | 0.00 | 49 | 1019.3 |
| 20260830205718 | 87 | 308 | 3.0 | 11.0 | 0.00 | 0.00 | 0.00 | 51 | 1019.3 |
| 20260830205220 | 87 | 92 | 3.0 | 9.0 | 0.00 | 0.00 | 0.00 | 52 | 1019.3 |
| 20260830204718 | 87 | 0 | 5.0 | 12.0 | 0.00 | 0.00 | 0.00 | 51 | 1019.4 |
| 20260830204218 | 88 | 0 | 5.0 | 12.0 | 0.00 | 0.00 | 0.00 | 50 | 1019.4 |
| 20260830203718 | 88 | 0 | 4.0 | 11.0 | 0.00 | 0.00 | 0.00 | 51 | 1019.6 |
| 20260830203215 | 88 | 0 | 4.0 | 11.0 | 0.00 | 0.00 | 0.00 | 51 | 1019.6 |
| 20260830202714 | 88 | 0 | 4.0 | 10.0 | 0.00 | 0.00 | 0.00 | 49 | 1019.6 |
| 20260830202213 | 88 | 0 | 3.0 | 10.0 | 0.00 | 0.00 | 0.00 | 51 | 1019.7 |
| 20260830201714 | 88 | 0 | 3.0 | 13.0 | 0.00 | 0.00 | 0.00 | 49 | 1019.6 |
| 20260830201212 | 88 | 0 | 4.0 | 13.0 | 0.00 | 0.00 | 0.00 | 48 | 1019.7 |
| 20260830200715 | 89 | 0 | 3.0 | 8.0 | 0.00 | 0.00 | 0.00 | 49 | 1019.7 |
| 20260830200440 | 88 | 11 | 2.0 | 8.0 | 0.00 | 0.00 | 0.00 | 49 | 1019.8 |
| 20260830195709 | 88 | 0 | 2.0 | 6.0 | 0.00 | 0.00 | 0.00 | 51 | 1019.8 |
| 20260830195442 | 88 | 0 | 2.0 | 7.0 | 0.00 | 0.00 | 0.00 | 48 | 1019.8 |
| 20260830194708 | 88 | 19 | 2.0 | 7.0 | 0.00 | 0.00 | 0.00 | 49 | 1019.8 |
| 20260830194206 | 88 | 312 | 2.0 | 5.0 | 0.00 | 0.00 | 0.00 | 49 | 1019.9 |
| 20260830193938 | 88 | 238 | 3.0 | 9.0 | 0.00 | 0.00 | 0.00 | 51 | 1020.0 |
| 20260830193200 | 88 | 0 | 3.0 | 11.0 | 0.00 | 0.00 | 0.00 | 50 | 1020.1 |
| 20260830192700 | 87 | 0 | 4.0 | 11.0 | 0.00 | 0.00 | 0.00 | 51 | 1020.2 |
| 20260830192201 | 87 | 0 | 4.0 | 10.0 | 0.00 | 0.00 | 0.00 | 50 | 1020.2 |
| 20260830191704 | 87 | 17 | 5.0 | 11.0 | 0.00 | 0.00 | 0.00 | 53 | 1020.4 |
| 20260830191700 | 87 | 329 | 4.0 | 10.0 | 0.00 | 0.00 | 0.00 | 51 | 1020.3 |
| 20260830190700 | 87 | 19 | 6.0 | 12.0 | 0.00 | 0.00 | 0.00 | 54 | 1020.5 |
| 20260830190154 | 87 | 0 | 5.0 | 16.0 | 0.00 | 0.00 | 0.00 | 52 | 1020.5 |
| 20260830185652 | 87 | 317 | 5.0 | 16.0 | 0.00 | 0.00 | 0.00 | 52 | 1020.5 |
| 20260830185154 | 87 | 0 | 5.0 | 10.0 | 0.00 | 0.00 | 0.00 | 51 | 1020.6 |
| 20260830184653 | 87 | 0 | 5.0 | 11.0 | 0.00 | 0.00 | 0.00 | 51 | 1020.6 |
| 20260830184153 | 87 | 0 | 4.0 | 11.0 | 0.00 | 0.00 | 0.00 | 51 | 1020.7 |
| 20260830183656 | 87 | 0 | 2.0 | 9.0 | 0.00 | 0.00 | 0.00 | 52 | 1020.8 |
| 20260830183152 | 86 | 0 | 4.0 | 8.0 | 0.00 | 0.00 | 0.00 | 54 | 1020.8 |
| 20260830182920 | 85 | 0 | 5.0 | 11.0 | 0.00 | 0.00 | 0.00 | 52 | 1021.0 |
| 20260830182148 | 85 | 0 | 7.0 | 13.0 | 0.00 | 0.00 | 0.00 | 51 | 1021.0 |
| 20260830181645 | 86 | 0 | 7.0 | 13.0 | 0.00 | 0.00 | 0.00 | 52 | 1021.1 |
| 20260830181146 | 86 | 0 | 6.0 | 15.0 | 0.00 | 0.00 | 0.00 | 51 | 1021.0 |
| 20260830180648 | 86 | 333 | 5.0 | 15.0 | 0.00 | 0.00 | 0.00 | 53 | 1021.1 |
| 20260830180140 | 85 | 0 | 5.0 | 11.0 | 0.00 | 0.00 | 0.00 | 53 | 1021.1 |
| 20260830175638 | 85 | 0 | 5.0 | 10.0 | 0.00 | 0.00 | 0.00 | 54 | 1021.2 |
| 20260830175137 | 85 | 0 | 5.0 | 10.0 | 0.00 | 0.00 | 0.00 | 54 | 1021.2 |